| time (UTC) | temp F | wind direction | speed knots | gust knots | rain 1hr in | rain 24hr in | rain mn in | humidity % | barometer mb |
| 20260505200520 | 85 | 0 | 0.9 | 7.8 | 0.00 | 0.01 | 0.01 | 37 | 1015.2 |
| 20260505200035 | 85 | 0 | 1.7 | 7.8 | 0.00 | 0.01 | 0.01 | 37 | 1015.2 |
| 20260505195519 | 85 | 0 | 0.0 | 4.3 | 0.00 | 0.01 | 0.01 | 38 | 1015.3 |
| 20260505195022 | 85 | 0 | 0.0 | 5.2 | 0.00 | 0.01 | 0.01 | 40 | 1015.3 |
| 20260505194535 | 85 | 105 | 0.9 | 5.2 | 0.00 | 0.01 | 0.01 | 37 | 1015.5 |
| 20260505194019 | 85 | 58 | 0.9 | 5.2 | 0.00 | 0.01 | 0.01 | 36 | 1015.5 |
| 20260505193521 | 85 | 0 | 0.0 | 3.5 | 0.00 | 0.01 | 0.01 | 37 | 1015.6 |
| 20260505193038 | 85 | 98 | 0.0 | 5.2 | 0.00 | 0.01 | 0.01 | 38 | 1015.6 |
| 20260505192522 | 85 | 111 | 0.9 | 6.1 | 0.00 | 0.01 | 0.01 | 36 | 1015.7 |
| 20260505192021 | 86 | 109 | 0.0 | 6.1 | 0.00 | 0.01 | 0.01 | 36 | 1015.7 |
| 20260505191536 | 86 | 124 | 1.7 | 6.1 | 0.00 | 0.01 | 0.01 | 35 | 1015.8 |
| 20260505191021 | 86 | 0 | 0.9 | 6.1 | 0.00 | 0.01 | 0.01 | 37 | 1016.0 |
| 20260505190523 | 86 | 0 | 0.9 | 4.3 | 0.00 | 0.01 | 0.01 | 36 | 1016.1 |
| 20260505190044 | 86 | 268 | 0.0 | 4.3 | 0.00 | 0.01 | 0.01 | 36 | 1016.2 |
| 20260505185521 | 86 | 231 | 0.0 | 3.5 | 0.00 | 0.01 | 0.01 | 38 | 1016.3 |
| 20260505185022 | 85 | 288 | 0.9 | 3.5 | 0.00 | 0.01 | 0.01 | 37 | 1016.5 |
| 20260505184536 | 86 | 94 | 0.0 | 3.5 | 0.00 | 0.01 | 0.01 | 39 | 1016.7 |
| 20260505184021 | 85 | 240 | 0.0 | 7.8 | 0.00 | 0.01 | 0.01 | 39 | 1016.8 |
| 20260505183518 | 85 | 244 | 0.0 | 7.8 | 0.00 | 0.01 | 0.01 | 39 | 1016.8 |
| 20260505183043 | 85 | 0 | 0.9 | 7.8 | 0.00 | 0.01 | 0.01 | 37 | 1016.8 |
| 20260505182521 | 85 | 0 | 0.0 | 6.1 | 0.00 | 0.01 | 0.01 | 38 | 1016.8 |
| 20260505182019 | 84 | 263 | 1.7 | 6.1 | 0.00 | 0.01 | 0.01 | 39 | 1016.8 |
| 20260505181532 | 84 | 269 | 0.0 | 5.2 | 0.00 | 0.01 | 0.01 | 41 | 1016.8 |
| 20260505181023 | 83 | 0 | 0.0 | 5.2 | 0.00 | 0.01 | 0.01 | 43 | 1016.9 |
| 20260505180520 | 83 | 77 | 0.9 | 8.7 | 0.00 | 0.01 | 0.01 | 41 | 1016.7 |
| 20260505180037 | 83 | 0 | 0.9 | 8.7 | 0.00 | 0.01 | 0.01 | 41 | 1016.8 |
| 20260505175520 | 82 | 0 | 0.9 | 7.0 | 0.00 | 0.01 | 0.01 | 41 | 1016.7 |
| 20260505175019 | 82 | 0 | 0.0 | 7.0 | 0.00 | 0.01 | 0.01 | 43 | 1016.6 |
| 20260505174536 | 82 | 140 | 1.7 | 7.0 | 0.00 | 0.01 | 0.01 | 41 | 1016.6 |
| 20260505174022 | 82 | 294 | 0.0 | 7.0 | 0.00 | 0.01 | 0.01 | 42 | 1016.7 |
| 20260505173519 | 82 | 0 | 0.0 | 3.5 | 0.00 | 0.01 | 0.01 | 41 | 1016.8 |
| 20260505173043 | 82 | 0 | 0.0 | 3.5 | 0.00 | 0.01 | 0.01 | 41 | 1016.9 |
| 20260505172524 | 82 | 0 | 0.0 | 5.2 | 0.00 | 0.01 | 0.01 | 44 | 1016.8 |
| 20260505172020 | 82 | 231 | 0.0 | 6.1 | 0.00 | 0.01 | 0.01 | 43 | 1017.0 |
| 20260505171536 | 82 | 0 | 0.0 | 6.1 | 0.00 | 0.01 | 0.01 | 42 | 1017.1 |
| 20260505171025 | 81 | 0 | 0.9 | 6.1 | 0.00 | 0.01 | 0.01 | 46 | 1017.1 |
| 20260505170521 | 81 | 92 | 0.0 | 6.1 | 0.00 | 0.01 | 0.01 | 46 | 1017.3 |
| 20260505170035 | 81 | 0 | 0.0 | 5.2 | 0.00 | 0.01 | 0.01 | 46 | 1017.5 |
| 20260505165519 | 82 | 0 | 0.9 | 5.2 | 0.00 | 0.01 | 0.01 | 43 | 1017.4 |
| 20260505165019 | 82 | 0 | 0.0 | 5.2 | 0.00 | 0.01 | 0.01 | 46 | 1017.5 |
| 20260505164538 | 82 | 87 | 1.7 | 5.2 | 0.00 | 0.01 | 0.01 | 42 | 1017.6 |
| 20260505164021 | 82 | 93 | 0.0 | 3.5 | 0.00 | 0.01 | 0.01 | 44 | 1017.7 |
| 20260505163519 | 82 | 0 | 0.9 | 3.5 | 0.00 | 0.01 | 0.01 | 45 | 1017.6 |
| 20260505163035 | 82 | 0 | 0.0 | 3.5 | 0.00 | 0.01 | 0.01 | 48 | 1017.6 |
| 20260505162521 | 82 | 0 | 0.0 | 4.3 | 0.00 | 0.01 | 0.01 | 45 | 1017.8 |
| 20260505162020 | 82 | 278 | 0.0 | 4.3 | 0.00 | 0.01 | 0.01 | 48 | 1017.8 |
| 20260505161539 | 81 | 0 | 0.0 | 5.2 | 0.00 | 0.01 | 0.01 | 49 | 1017.8 |
| 20260505161019 | 81 | 0 | 0.9 | 5.2 | 0.00 | 0.01 | 0.01 | 49 | 1018.0 |
| 20260505160520 | 81 | 0 | 0.9 | 4.3 | 0.00 | 0.01 | 0.01 | 49 | 1018.1 |
| 20260505153045 | 79 | 0 | 0.0 | 4.3 | 0.00 | 0.01 | 0.01 | 54 | 1018.1 |
| 20260505152520 | 79 | 107 | 0.0 | 4.3 | 0.00 | 0.01 | 0.01 | 54 | 1018.1 |
| 20260505152019 | 79 | 303 | 0.0 | 4.3 | 0.00 | 0.01 | 0.01 | 53 | 1018.1 |
| 20260505151541 | 79 | 0 | 0.0 | 4.3 | 0.00 | 0.01 | 0.01 | 54 | 1018.1 |
| 20260505151019 | 79 | 0 | 0.9 | 5.2 | 0.00 | 0.01 | 0.01 | 53 | 1018.1 |
| 20260505150519 | 79 | 0 | 0.0 | 5.2 | 0.00 | 0.01 | 0.01 | 55 | 1018.0 |
| 20260505140520 | 74 | 0 | 0.0 | 1.7 | 0.00 | 0.01 | 0.01 | 65 | 1018.0 |
| 20260505125021 | 60 | 0 | 0.0 | 0.9 | 0.00 | 0.01 | 0.01 | 92 | 1017.9 |
| 20260505124538 | 59 | 0 | 0.0 | 1.7 | 0.00 | 0.01 | 0.01 | 92 | 1017.9 |
| 20260505124022 | 58 | 0 | 0.0 | 1.7 | 0.00 | 0.01 | 0.01 | 93 | 1017.8 |
| 20260505123525 | 57 | 0 | 0.0 | 0.9 | 0.00 | 0.01 | 0.01 | 93 | 1017.8 |
| 20260505123039 | 57 | 0 | 0.0 | 1.7 | 0.00 | 0.01 | 0.01 | 92 | 1017.8 |
| 20260505122521 | 56 | 0 | 0.0 | 1.7 | 0.00 | 0.01 | 0.01 | 93 | 1017.8 |
| 20260505122023 | 56 | 0 | 0.0 | 0.0 | 0.00 | 0.01 | 0.01 | 92 | 1017.8 |
| 20260505121540 | 55 | 0 | 0.0 | 0.0 | 0.00 | 0.01 | 0.01 | 92 | 1017.8 |
| 20260505121021 | 55 | 0 | 0.0 | 0.0 | 0.00 | 0.01 | 0.01 | 92 | 1017.9 |
| 20260505120518 | 55 | 0 | 0.0 | 0.0 | 0.00 | 0.01 | 0.01 | 92 | 1017.8 |
| 20260505120046 | 54 | 0 | 0.0 | 0.0 | 0.00 | 0.01 | 0.01 | 91 | 1017.8 |
| 20260505115520 | 54 | 0 | 0.0 | 0.0 | 0.00 | 0.01 | 0.01 | 91 | 1017.8 |
| 20260505115020 | 54 | 0 | 0.0 | 0.0 | 0.00 | 0.01 | 0.01 | 90 | 1017.8 |
| 20260505114535 | 53 | 0 | 0.0 | 0.0 | 0.00 | 0.01 | 0.01 | 90 | 1017.8 |
| 20260505114021 | 53 | 0 | 0.0 | 0.0 | 0.00 | 0.01 | 0.01 | 89 | 1017.7 |
| 20260505113521 | 53 | 0 | 0.0 | 0.0 | 0.00 | 0.01 | 0.01 | 89 | 1017.7 |
| 20260505113035 | 53 | 0 | 0.0 | 0.0 | 0.00 | 0.01 | 0.01 | 88 | 1017.7 |
| 20260505112522 | 53 | 0 | 0.0 | 0.0 | 0.00 | 0.01 | 0.01 | 88 | 1017.7 |
| 20260505112020 | 53 | 0 | 0.0 | 0.0 | 0.00 | 0.01 | 0.01 | 87 | 1017.7 |
| 20260505111538 | 53 | 0 | 0.0 | 0.0 | 0.00 | 0.01 | 0.01 | 87 | 1017.7 |
| 20260505111023 | 53 | 0 | 0.0 | 0.0 | 0.00 | 0.01 | 0.01 | 87 | 1017.7 |
| 20260505110518 | 53 | 0 | 0.0 | 0.0 | 0.00 | 0.01 | 0.01 | 87 | 1017.6 |
| 20260505102024 | 53 | 0 | 0.0 | 0.0 | 0.00 | 0.01 | 0.01 | 85 | 1017.1 |
| 20260505101541 | 54 | 0 | 0.0 | 0.0 | 0.00 | 0.01 | 0.01 | 85 | 1017.3 |
| 20260505101019 | 54 | 0 | 0.0 | 0.0 | 0.00 | 0.01 | 0.01 | 85 | 1017.1 |
| 20260505100521 | 54 | 0 | 0.0 | 0.0 | 0.00 | 0.01 | 0.01 | 85 | 1016.9 |
| 20260505100040 | 54 | 0 | 0.0 | 0.0 | 0.00 | 0.01 | 0.01 | 85 | 1016.8 |
| 20260505095519 | 54 | 0 | 0.0 | 0.0 | 0.00 | 0.01 | 0.01 | 85 | 1016.8 |
| 20260505095021 | 54 | 0 | 0.0 | 0.0 | 0.00 | 0.01 | 0.01 | 85 | 1016.9 |
| 20260505094536 | 54 | 0 | 0.0 | 0.0 | 0.00 | 0.01 | 0.01 | 85 | 1016.8 |
| 20260505094020 | 54 | 0 | 0.0 | 0.0 | 0.00 | 0.01 | 0.01 | 84 | 1016.8 |
| 20260505093523 | 54 | 0 | 0.0 | 0.0 | 0.00 | 0.01 | 0.01 | 84 | 1016.8 |
| 20260505093036 | 54 | 0 | 0.0 | 0.0 | 0.00 | 0.01 | 0.01 | 84 | 1016.8 |
| 20260505092521 | 54 | 0 | 0.0 | 0.0 | 0.00 | 0.01 | 0.01 | 84 | 1016.8 |
| 20260505092020 | 54 | 0 | 0.0 | 0.0 | 0.00 | 0.01 | 0.01 | 84 | 1016.7 |
| 20260505091538 | 55 | 0 | 0.0 | 0.0 | 0.00 | 0.01 | 0.01 | 84 | 1016.8 |
| 20260505091020 | 55 | 0 | 0.0 | 0.0 | 0.00 | 0.01 | 0.01 | 84 | 1016.8 |
| 20260505090518 | 55 | 0 | 0.0 | 0.0 | 0.00 | 0.01 | 0.01 | 84 | 1016.7 |
| 20260505090036 | 55 | 0 | 0.0 | 0.0 | 0.00 | 0.01 | 0.01 | 84 | 1016.8 |
| 20260505085522 | 55 | 0 | 0.0 | 0.0 | 0.00 | 0.01 | 0.01 | 84 | 1016.7 |
| 20260505085021 | 55 | 0 | 0.0 | 0.0 | 0.00 | 0.01 | 0.01 | 84 | 1016.8 |
| 20260505084543 | 55 | 0 | 0.0 | 0.0 | 0.00 | 0.01 | 0.01 | 83 | 1016.6 |
| 20260505084020 | 55 | 0 | 0.0 | 0.0 | 0.00 | 0.01 | 0.01 | 82 | 1016.6 |
| 20260505083520 | 55 | 0 | 0.0 | 0.0 | 0.00 | 0.01 | 0.01 | 82 | 1016.6 |
| 20260505083037 | 55 | 0 | 0.0 | 0.0 | 0.00 | 0.01 | 0.01 | 82 | 1016.7 |
| 20260505082519 | 55 | 0 | 0.0 | 0.0 | 0.00 | 0.01 | 0.01 | 82 | 1016.6 |
| 20260505082021 | 55 | 0 | 0.0 | 0.0 | 0.00 | 0.01 | 0.01 | 81 | 1016.6 |
| 20260505081536 | 55 | 0 | 0.0 | 0.0 | 0.00 | 0.01 | 0.01 | 81 | 1016.6 |
| 20260505081018 | 56 | 0 | 0.0 | 0.0 | 0.00 | 0.01 | 0.01 | 81 | 1016.6 |
| 20260505080521 | 56 | 0 | 0.0 | 0.0 | 0.00 | 0.01 | 0.01 | 80 | 1016.5 |
| 20260505080037 | 56 | 0 | 0.0 | 0.0 | 0.00 | 0.01 | 0.01 | 80 | 1016.5 |
| 20260505075521 | 56 | 0 | 0.0 | 0.0 | 0.00 | 0.01 | 0.01 | 80 | 1016.4 |
| 20260505075023 | 56 | 0 | 0.0 | 0.0 | 0.00 | 0.01 | 0.01 | 80 | 1016.3 |
| 20260505074536 | 56 | 0 | 0.0 | 0.0 | 0.00 | 0.01 | 0.01 | 80 | 1016.3 |
| 20260505074020 | 56 | 0 | 0.0 | 0.0 | 0.00 | 0.01 | 0.01 | 80 | 1016.2 |
| 20260505073520 | 56 | 0 | 0.0 | 0.0 | 0.00 | 0.01 | 0.01 | 80 | 1016.2 |
| 20260505073043 | 56 | 0 | 0.0 | 0.0 | 0.00 | 0.01 | 0.01 | 80 | 1016.3 |
| 20260505072521 | 56 | 0 | 0.0 | 0.0 | 0.00 | 0.01 | 0.01 | 79 | 1016.4 |
| 20260505072020 | 56 | 0 | 0.0 | 0.0 | 0.00 | 0.01 | 0.01 | 79 | 1016.3 |
| 20260505071536 | 56 | 0 | 0.0 | 0.0 | 0.00 | 0.01 | 0.01 | 79 | 1016.3 |
| 20260505071020 | 57 | 0 | 0.0 | 0.0 | 0.00 | 0.01 | 0.01 | 79 | 1016.2 |
| 20260505070521 | 57 | 0 | 0.0 | 0.0 | 0.00 | 0.01 | 0.01 | 79 | 1016.2 |
| 20260505070045 | 57 | 0 | 0.0 | 0.0 | 0.00 | 0.01 | 0.01 | 78 | 1016.3 |
| 20260505065520 | 57 | 0 | 0.0 | 0.0 | 0.00 | 0.01 | 0.01 | 78 | 1016.3 |
| 20260505065021 | 57 | 0 | 0.0 | 0.0 | 0.00 | 0.01 | 0.01 | 78 | 1016.3 |
| 20260505064536 | 57 | 0 | 0.0 | 0.0 | 0.00 | 0.01 | 0.01 | 78 | 1016.4 |
| 20260505064020 | 57 | 0 | 0.0 | 0.0 | 0.00 | 0.01 | 0.01 | 78 | 1016.3 |
| 20260505063520 | 57 | 0 | 0.0 | 0.0 | 0.00 | 0.01 | 0.01 | 77 | 1016.3 |
| 20260505063036 | 57 | 0 | 0.0 | 0.0 | 0.00 | 0.01 | 0.01 | 76 | 1016.4 |
| 20260505062521 | 57 | 0 | 0.0 | 0.0 | 0.00 | 0.01 | 0.01 | 76 | 1016.4 |
| 20260505062020 | 58 | 0 | 0.0 | 0.0 | 0.00 | 0.01 | 0.01 | 76 | 1016.5 |
| 20260505061540 | 58 | 0 | 0.0 | 0.0 | 0.00 | 0.01 | 0.01 | 75 | 1016.6 |
| 20260505061020 | 58 | 0 | 0.0 | 0.0 | 0.00 | 0.01 | 0.01 | 75 | 1016.6 |
| 20260505060523 | 58 | 0 | 0.0 | 0.0 | 0.00 | 0.01 | 0.01 | 74 | 1016.7 |
| 20260505060035 | 58 | 0 | 0.0 | 0.0 | 0.00 | 0.01 | 0.01 | 74 | 1016.7 |
| 20260505055521 | 58 | 0 | 0.0 | 0.0 | 0.00 | 0.01 | 0.01 | 73 | 1016.8 |
| 20260505055020 | 58 | 0 | 0.0 | 0.0 | 0.00 | 0.01 | 0.01 | 73 | 1016.8 |
| 20260505054539 | 59 | 0 | 0.0 | 0.0 | 0.00 | 0.01 | 0.01 | 72 | 1016.8 |
| 20260505054017 | 59 | 0 | 0.0 | 0.0 | 0.00 | 0.01 | 0.01 | 72 | 1016.8 |
| 20260505053522 | 59 | 0 | 0.0 | 0.0 | 0.00 | 0.01 | 0.01 | 72 | 1016.8 |
| 20260505053036 | 59 | 0 | 0.0 | 0.0 | 0.00 | 0.01 | 0.01 | 71 | 1016.8 |
| 20260505052519 | 59 | 0 | 0.0 | 0.0 | 0.00 | 0.01 | 0.01 | 71 | 1016.8 |
| 20260505052020 | 60 | 0 | 0.0 | 0.0 | 0.00 | 0.01 | 0.01 | 70 | 1016.9 |
| 20260505051536 | 60 | 0 | 0.0 | 0.0 | 0.01 | 0.01 | 0.01 | 69 | 1016.9 |
| 20260505051021 | 60 | 0 | 0.0 | 0.0 | 0.01 | 0.01 | 0.01 | 68 | 1016.9 |
| 20260505050523 | 60 | 0 | 0.0 | 0.0 | 0.01 | 0.01 | 0.01 | 68 | 1017.0 |
| 20260505041549 | 62 | 0 | 0.0 | 0.0 | 0.00 | 0.00 | 0.00 | 65 | 1016.9 |
| 20260505041022 | 63 | 0 | 0.0 | 0.0 | 0.00 | 0.00 | 0.00 | 64 | 1017.0 |
| 20260505040523 | 63 | 0 | 0.0 | 0.0 | 0.00 | 0.00 | 0.00 | 64 | 1017.1 |
| 20260505040047 | 63 | 0 | 0.0 | 0.0 | 0.00 | 0.00 | 0.00 | 64 | 1017.0 |
| 20260505035520 | 63 | 0 | 0.0 | 0.0 | 0.00 | 0.00 | 0.00 | 64 | 1017.1 |
| 20260505035020 | 63 | 0 | 0.0 | 0.0 | 0.00 | 0.00 | 0.00 | 64 | 1017.1 |
| 20260505034539 | 63 | 0 | 0.0 | 0.0 | 0.00 | 0.00 | 0.00 | 63 | 1017.1 |
| 20260505034020 | 64 | 0 | 0.0 | 0.0 | 0.00 | 0.00 | 0.00 | 64 | 1017.1 |
| 20260505033520 | 64 | 0 | 0.0 | 0.0 | 0.00 | 0.00 | 0.00 | 63 | 1017.1 |
| 20260505033037 | 64 | 0 | 0.0 | 0.0 | 0.00 | 0.00 | 0.00 | 64 | 1017.2 |
| 20260505032521 | 64 | 0 | 0.0 | 0.0 | 0.00 | 0.00 | 0.00 | 63 | 1017.1 |
| 20260505032020 | 64 | 0 | 0.0 | 0.0 | 0.00 | 0.00 | 0.00 | 63 | 1017.2 |
| 20260505031542 | 64 | 0 | 0.0 | 0.0 | 0.00 | 0.00 | 0.00 | 63 | 1017.1 |
| 20260505031021 | 64 | 0 | 0.0 | 0.9 | 0.00 | 0.00 | 0.00 | 62 | 1017.1 |
| 20260505030519 | 65 | 0 | 0.0 | 0.9 | 0.00 | 0.00 | 0.00 | 63 | 1017.2 |
| 20260505030037 | 65 | 0 | 0.0 | 0.0 | 0.00 | 0.00 | 0.00 | 62 | 1017.2 |
| 20260505025521 | 65 | 0 | 0.0 | 0.0 | 0.00 | 0.00 | 0.00 | 61 | 1017.3 |
| 20260505025022 | 65 | 0 | 0.0 | 0.9 | 0.00 | 0.00 | 0.00 | 61 | 1017.2 |
| 20260505024538 | 65 | 0 | 0.0 | 0.9 | 0.00 | 0.00 | 0.00 | 61 | 1017.3 |
| 20260505024022 | 66 | 0 | 0.0 | 0.0 | 0.00 | 0.00 | 0.00 | 61 | 1017.2 |
| 20260505023522 | 66 | 0 | 0.0 | 1.7 | 0.00 | 0.00 | 0.00 | 60 | 1017.3 |
| 20260505023038 | 66 | 0 | 0.0 | 1.7 | 0.00 | 0.00 | 0.00 | 60 | 1017.1 |
| 20260505022517 | 66 | 0 | 0.0 | 1.7 | 0.00 | 0.00 | 0.00 | 60 | 1017.1 |
| 20260505022019 | 66 | 0 | 0.0 | 1.7 | 0.00 | 0.00 | 0.00 | 60 | 1017.0 |
| 20260505021534 | 66 | 0 | 0.0 | 1.7 | 0.00 | 0.00 | 0.00 | 60 | 1016.9 |
| 20260505021018 | 66 | 0 | 0.0 | 1.7 | 0.00 | 0.00 | 0.00 | 60 | 1016.8 |
| 20260505020517 | 66 | 0 | 0.0 | 0.0 | 0.00 | 0.00 | 0.00 | 59 | 1016.8 |
| 20260505020037 | 67 | 0 | 0.0 | 0.0 | 0.00 | 0.00 | 0.00 | 58 | 1016.7 |
| 20260505015517 | 67 | 0 | 0.0 | 0.0 | 0.00 | 0.00 | 0.00 | 57 | 1016.7 |
| 20260505015017 | 67 | 0 | 0.0 | 0.0 | 0.00 | 0.00 | 0.00 | 57 | 1016.7 |
| 20260505014553 | 67 | 0 | 0.0 | 0.9 | 0.00 | 0.00 | 0.00 | 57 | 1016.6 |
| 20260505014016 | 67 | 0 | 0.0 | 0.9 | 0.00 | 0.00 | 0.00 | 57 | 1016.5 |
| 20260505013519 | 67 | 0 | 0.0 | 1.7 | 0.00 | 0.00 | 0.00 | 55 | 1016.5 |
| 20260505013037 | 67 | 0 | 0.0 | 1.7 | 0.00 | 0.00 | 0.00 | 54 | 1016.3 |
| 20260505012519 | 67 | 0 | 0.0 | 1.7 | 0.00 | 0.00 | 0.00 | 53 | 1016.3 |
| 20260505012017 | 67 | 0 | 0.0 | 1.7 | 0.00 | 0.00 | 0.00 | 53 | 1016.3 |
| 20260505011535 | 68 | 0 | 0.0 | 1.7 | 0.00 | 0.00 | 0.00 | 52 | 1016.1 |
| 20260505011017 | 68 | 0 | 0.0 | 1.7 | 0.00 | 0.00 | 0.00 | 50 | 1016.1 |
| 20260505010518 | 68 | 0 | 0.0 | 0.9 | 0.00 | 0.00 | 0.00 | 49 | 1016.1 |
| 20260505010036 | 69 | 0 | 0.0 | 0.0 | 0.00 | 0.00 | 0.00 | 48 | 1015.9 |
| 20260505005520 | 69 | 0 | 0.0 | 0.0 | 0.00 | 0.01 | 0.00 | 47 | 1015.9 |
| 20260505005021 | 70 | 0 | 0.0 | 0.0 | 0.00 | 0.01 | 0.00 | 47 | 1015.8 |
| 20260505004537 | 70 | 0 | 0.0 | 0.0 | 0.00 | 0.01 | 0.00 | 45 | 1015.7 |
| 20260505004021 | 71 | 0 | 0.0 | 0.0 | 0.00 | 0.01 | 0.00 | 45 | 1015.6 |
| 20260505003517 | 71 | 0 | 0.0 | 0.0 | 0.00 | 0.01 | 0.00 | 43 | 1015.5 |
| 20260505003038 | 72 | 0 | 0.0 | 0.0 | 0.00 | 0.01 | 0.00 | 42 | 1015.4 |
| 20260505002517 | 72 | 0 | 0.0 | 0.0 | 0.00 | 0.01 | 0.00 | 42 | 1015.3 |
| 20260505002017 | 73 | 0 | 0.0 | 0.0 | 0.00 | 0.01 | 0.00 | 41 | 1015.4 |
| 20260505001538 | 73 | 0 | 0.0 | 0.0 | 0.00 | 0.01 | 0.00 | 41 | 1015.3 |
| 20260505001020 | 74 | 0 | 0.0 | 0.0 | 0.00 | 0.01 | 0.00 | 40 | 1015.2 |
| 20260505000521 | 74 | 0 | 0.0 | 0.0 | 0.00 | 0.01 | 0.00 | 39 | 1015.2 |
| 20260505000048 | 75 | 0 | 0.0 | 0.9 | 0.00 | 0.01 | 0.00 | 39 | 1015.2 |
| 20260504235520 | 75 | 0 | 0.0 | 1.7 | 0.00 | 0.01 | 0.00 | 38 | 1015.1 |
| 20260504235022 | 75 | 0 | 0.0 | 1.7 | 0.00 | 0.01 | 0.00 | 38 | 1015.0 |
| 20260504234545 | 76 | 0 | 0.0 | 1.7 | 0.00 | 0.01 | 0.00 | 38 | 1015.0 |
| 20260504234022 | 76 | 0 | 0.0 | 2.6 | 0.00 | 0.01 | 0.00 | 37 | 1015.0 |
| 20260504233516 | 77 | 0 | 0.0 | 2.6 | 0.00 | 0.01 | 0.00 | 37 | 1015.0 |
| 20260504233043 | 77 | 0 | 0.0 | 0.0 | 0.00 | 0.01 | 0.00 | 36 | 1014.9 |
| 20260504232518 | 77 | 0 | 0.0 | 0.9 | 0.00 | 0.01 | 0.00 | 36 | 1014.9 |
| 20260504232019 | 77 | 0 | 0.0 | 0.9 | 0.00 | 0.01 | 0.00 | 35 | 1014.9 |
| 20260504231537 | 78 | 0 | 0.0 | 0.9 | 0.00 | 0.01 | 0.00 | 35 | 1014.9 |
| 20260504231021 | 78 | 0 | 0.0 | 0.9 | 0.00 | 0.01 | 0.00 | 34 | 1015.0 |
| 20260504230521 | 78 | 0 | 0.0 | 1.7 | 0.00 | 0.01 | 0.00 | 34 | 1015.0 |
| 20260504230039 | 79 | 0 | 0.0 | 1.7 | 0.00 | 0.01 | 0.00 | 34 | 1015.0 |
| 20260504225521 | 79 | 0 | 0.0 | 1.7 | 0.00 | 0.01 | 0.00 | 34 | 1015.0 |
| 20260504225021 | 79 | 0 | 0.0 | 0.9 | 0.00 | 0.01 | 0.00 | 34 | 1014.9 |
| 20260504224539 | 80 | 0 | 0.0 | 2.6 | 0.00 | 0.01 | 0.00 | 32 | 1014.9 |
| 20260504224021 | 80 | 200 | 0.0 | 2.6 | 0.00 | 0.01 | 0.00 | 32 | 1014.9 |
| 20260504223521 | 81 | 0 | 0.0 | 2.6 | 0.00 | 0.01 | 0.00 | 32 | 1014.9 |
| 20260504223053 | 81 | 0 | 0.0 | 2.6 | 0.00 | 0.01 | 0.00 | 32 | 1015.0 |
| 20260504222520 | 81 | 0 | 0.0 | 2.6 | 0.00 | 0.01 | 0.00 | 31 | 1014.9 |
| 20260504222020 | 82 | 0 | 0.0 | 2.6 | 0.00 | 0.01 | 0.00 | 30 | 1015.0 |
| 20260504221537 | 82 | 0 | 0.0 | 2.6 | 0.00 | 0.01 | 0.00 | 30 | 1015.0 |
| 20260504221019 | 82 | 125 | 0.0 | 2.6 | 0.00 | 0.01 | 0.00 | 30 | 1014.9 |
| 20260504220520 | 83 | 113 | 0.0 | 3.5 | 0.00 | 0.01 | 0.00 | 30 | 1014.9 |
| 20260504220036 | 83 | 121 | 0.9 | 3.5 | 0.00 | 0.01 | 0.00 | 29 | 1014.9 |
| 20260504215520 | 84 | 0 | 0.0 | 2.6 | 0.00 | 0.01 | 0.00 | 29 | 1014.8 |
| 20260504215021 | 84 | 0 | 0.0 | 1.7 | 0.00 | 0.01 | 0.00 | 29 | 1014.7 |
| 20260504214538 | 85 | 0 | 0.0 | 1.7 | 0.00 | 0.01 | 0.00 | 28 | 1014.7 |
| 20260504214021 | 85 | 217 | 0.0 | 1.7 | 0.00 | 0.01 | 0.00 | 29 | 1014.7 |
| 20260504213525 | 85 | 0 | 0.0 | 1.7 | 0.00 | 0.01 | 0.00 | 28 | 1014.6 |
| 20260504213049 | 84 | 0 | 0.0 | 1.7 | 0.00 | 0.01 | 0.00 | 32 | 1014.7 |
| 20260504212520 | 84 | 0 | 0.0 | 3.5 | 0.00 | 0.01 | 0.00 | 30 | 1014.7 |
| 20260504212023 | 84 | 0 | 0.0 | 3.5 | 0.00 | 0.01 | 0.00 | 30 | 1014.7 |
| 20260504211536 | 84 | 0 | 0.0 | 1.7 | 0.00 | 0.01 | 0.00 | 29 | 1014.7 |
| 20260504211020 | 84 | 0 | 0.0 | 2.6 | 0.00 | 0.01 | 0.00 | 28 | 1014.7 |
| 20260504210519 | 84 | 0 | 0.0 | 2.6 | 0.00 | 0.01 | 0.00 | 28 | 1014.7 |
| 20260504210039 | 84 | 0 | 0.0 | 7.8 | 0.00 | 0.01 | 0.00 | 29 | 1014.7 |
| 20260504205519 | 83 | 0 | 0.9 | 7.8 | 0.00 | 0.01 | 0.00 | 28 | 1014.9 |
| 20260504205019 | 83 | 0 | 0.0 | 4.3 | 0.00 | 0.01 | 0.00 | 30 | 1014.7 |
| 20260504204543 | 83 | 104 | 0.0 | 5.2 | 0.00 | 0.01 | 0.00 | 30 | 1014.7 |
| 20260504204023 | 83 | 0 | 0.9 | 5.2 | 0.00 | 0.01 | 0.00 | 28 | 1014.8 |
| 20260504203522 | 83 | 107 | 0.9 | 5.2 | 0.00 | 0.01 | 0.00 | 28 | 1014.9 |
| 20260504203046 | 84 | 0 | 0.0 | 3.5 | 0.00 | 0.01 | 0.00 | 27 | 1014.9 |
| 20260504202519 | 84 | 0 | 0.0 | 3.5 | 0.00 | 0.01 | 0.00 | 27 | 1014.9 |
| 20260504202021 | 84 | 180 | 0.0 | 3.5 | 0.00 | 0.01 | 0.00 | 27 | 1014.9 |
| 20260504201538 | 84 | 0 | 0.0 | 3.5 | 0.00 | 0.01 | 0.00 | 27 | 1015.1 |
| 20260504201023 | 84 | 77 | 0.9 | 5.2 | 0.00 | 0.01 | 0.00 | 26 | 1015.0 |